TimeEST,TemperatureF,Dew PointF,Humidity,Sea Level PressureIn,VisibilityMPH,Wind Direction,Wind SpeedMPH,Gust SpeedMPH,PrecipitationIn,Events,Conditions,WindDirDegrees,DateUTC
12:02 AM,42.8,41.0,93,29.97,5.0,Calm,Calm,-,N/A,,Overcast,0,2012-12-09 05:02:00
12:08 AM,41.0,39.2,93,29.97,1.5,Calm,Calm,-,N/A,,Overcast,0,2012-12-09 05:08:00
12:10 AM,39.2,39.2,100,29.97,1.0,NW,3.5,-,N/A,,Overcast,310,2012-12-09 05:10:00
12:17 AM,39.2,39.2,100,29.97,0.5,WNW,4.6,-,N/A,Fog,Fog,300,2012-12-09 05:17:00
12:33 AM,41.0,39.2,93,29.98,1.2,Calm,Calm,-,N/A,,Overcast,0,2012-12-09 05:33:00
12:35 AM,41.0,39.2,93,29.98,2.0,Calm,Calm,-,N/A,,Overcast,0,2012-12-09 05:35:00
12:52 AM,39.9,39.9,100,30.00,3.0,Calm,Calm,-,N/A,,Overcast,0,2012-12-09 05:52:00
1:01 AM,39.2,39.2,100,29.99,1.8,Calm,Calm,-,N/A,,Overcast,0,2012-12-09 06:01:00
1:04 AM,39.2,39.2,100,29.98,1.0,Calm,Calm,-,N/A,,Overcast,0,2012-12-09 06:04:00
1:12 AM,39.2,39.2,100,29.99,0.5,Calm,Calm,-,N/A,Fog,Fog,0,2012-12-09 06:12:00
1:52 AM,39.0,39.0,100,30.03,0.2,Calm,Calm,-,N/A,Fog,Fog,0,2012-12-09 06:52:00
2:41 AM,37.4,35.6,93,30.04,1.2,SSW,5.8,-,N/A,,Scattered Clouds,200,2012-12-09 07:41:00
2:49 AM,35.6,35.6,100,30.04,0.8,SSW,4.6,-,N/A,,Mist,200,2012-12-09 07:49:00
2:52 AM,36.0,36.0,100,30.06,0.8,SW,3.5,-,N/A,,Mist,220,2012-12-09 07:52:00
3:01 AM,35.6,35.6,100,30.04,1.0,SSW,5.8,-,N/A,,Clear,210,2012-12-09 08:01:00
3:03 AM,37.4,35.6,93,30.04,1.5,SSW,4.6,-,N/A,,Clear,200,2012-12-09 08:03:00
3:11 AM,35.6,35.6,100,30.04,2.0,SSW,4.6,-,N/A,,Clear,210,2012-12-09 08:11:00
3:16 AM,35.6,35.6,100,30.05,1.2,SSW,3.5,-,N/A,,Clear,200,2012-12-09 08:16:00
3:22 AM,35.6,35.6,100,30.05,2.0,Calm,Calm,-,N/A,,Clear,0,2012-12-09 08:22:00
3:29 AM,33.8,33.8,100,30.05,1.5,Calm,Calm,-,N/A,,Clear,0,2012-12-09 08:29:00
3:32 AM,33.8,33.8,100,30.05,1.0,Calm,Calm,-,N/A,,Clear,0,2012-12-09 08:32:00
3:39 AM,35.6,35.6,100,30.05,1.0,SSE,3.5,-,N/A,,Mist,150,2012-12-09 08:39:00
3:52 AM,33.1,33.1,100,30.07,0.5,Calm,Calm,-,N/A,Fog,Fog,0,2012-12-09 08:52:00
4:31 AM,32.0,32.0,100,30.07,1.5,Calm,Calm,-,N/A,,Scattered Clouds,0,2012-12-09 09:31:00
4:34 AM,32.0,32.0,100,30.07,3.0,Calm,Calm,-,N/A,,Scattered Clouds,0,2012-12-09 09:34:00
4:43 AM,32.0,32.0,100,30.08,2.0,Calm,Calm,-,N/A,,Partly Cloudy,0,2012-12-09 09:43:00
4:52 AM,30.9,30.9,100,30.10,2.0,SSW,3.5,-,N/A,,Clear,210,2012-12-09 09:52:00
5:02 AM,32.0,30.2,93,30.09,2.5,Calm,Calm,-,N/A,,Partly Cloudy,0,2012-12-09 10:02:00
5:06 AM,30.2,30.2,100,30.10,1.2,ENE,3.5,-,N/A,,Partly Cloudy,60,2012-12-09 10:06:00
5:09 AM,30.2,30.2,100,30.10,0.8,East,3.5,-,N/A,,Mist,80,2012-12-09 10:09:00
5:16 AM,30.2,30.2,100,30.10,1.2,East,4.6,-,N/A,,Partly Cloudy,100,2012-12-09 10:16:00
5:19 AM,32.0,30.2,93,30.10,2.0,Calm,Calm,-,N/A,,Partly Cloudy,0,2012-12-09 10:19:00
5:27 AM,32.0,32.0,100,30.11,6.0,Calm,Calm,-,N/A,,Partly Cloudy,0,2012-12-09 10:27:00
5:52 AM,30.9,30.9,100,30.14,6.0,Calm,Calm,-,N/A,,Clear,0,2012-12-09 10:52:00
6:52 AM,30.0,30.0,100,30.18,5.0,Calm,Calm,-,N/A,,Clear,0,2012-12-09 11:52:00
7:52 AM,30.9,30.9,100,30.22,4.0,Calm,Calm,-,N/A,,Clear,0,2012-12-09 12:52:00
8:52 AM,33.1,32.0,96,30.25,4.0,Calm,Calm,-,N/A,,Clear,0,2012-12-09 13:52:00
9:52 AM,37.0,34.0,89,30.26,10.0,Calm,Calm,-,N/A,,Clear,0,2012-12-09 14:52:00
10:52 AM,39.9,34.0,79,30.26,10.0,Calm,Calm,-,N/A,,Clear,0,2012-12-09 15:52:00
11:52 AM,42.1,33.1,70,30.25,10.0,Calm,Calm,-,N/A,,Clear,0,2012-12-09 16:52:00
12:52 PM,43.0,32.0,65,30.24,10.0,North,3.5,-,N/A,,Clear,350,2012-12-09 17:52:00
1:52 PM,44.1,28.9,55,30.23,10.0,North,4.6,-,N/A,,Clear,360,2012-12-09 18:52:00
2:52 PM,44.1,28.9,55,30.24,10.0,East,3.5,-,N/A,,Clear,80,2012-12-09 19:52:00
3:52 PM,37.9,33.1,83,30.25,10.0,Calm,Calm,-,N/A,,Clear,0,2012-12-09 20:52:00
4:52 PM,35.1,34.0,96,30.27,10.0,Calm,Calm,-,N/A,,Clear,0,2012-12-09 21:52:00
5:52 PM,36.0,34.0,93,30.28,10.0,Calm,Calm,-,N/A,,Overcast,0,2012-12-09 22:52:00
6:52 PM,36.0,34.0,93,30.27,10.0,Calm,Calm,-,N/A,,Overcast,0,2012-12-09 23:52:00
7:52 PM,36.0,35.1,97,30.26,10.0,Calm,Calm,-,N/A,,Overcast,0,2012-12-10 00:52:00
8:39 PM,37.4,33.8,87,30.22,10.0,Calm,Calm,-,N/A,,Overcast,0,2012-12-10 01:39:00
8:52 PM,37.0,35.1,93,30.24,10.0,Calm,Calm,-,0.00,Rain,Light Rain,0,2012-12-10 01:52:00
9:43 PM,35.6,35.6,100,30.19,5.0,Calm,Calm,-,0.01,Rain,Light Rain,0,2012-12-10 02:43:00
9:52 PM,36.0,35.1,97,30.21,5.0,Calm,Calm,-,0.02,Rain,Light Rain,0,2012-12-10 02:52:00
10:52 PM,36.0,35.1,97,30.18,5.0,Calm,Calm,-,0.06,Rain,Rain,0,2012-12-10 03:52:00
11:52 PM,37.0,36.0,96,30.14,7.0,Calm,Calm,-,0.07,Rain,Light Rain,0,2012-12-10 04:52:00